Time,TemperatureF,DewpointF,PressureIn,WindDirection,WindDirectionDegrees,WindSpeedMPH,WindSpeedGustMPH,Humidity,HourlyPrecipIn,Conditions,Clouds,dailyrainin,SoftwareType,DateUTC
2013-10-08 00:13:00,57.0,-99.9,-100.00,SSW,201,2.0,-999.0,-999,0.00,,,0.00,,2013-10-08 05:13:00,
2013-10-08 00:23:00,57.0,-99.9,-100.00,SSW,201,2.0,-999.0,-999,0.00,,,0.00,,2013-10-08 05:23:00,
2013-10-08 00:42:00,58.0,-99.9,-100.00,SSW,195,2.0,-999.0,-999,0.00,,,0.00,,2013-10-08 05:42:00,
2013-10-08 00:53:00,58.0,-99.9,-100.00,SSW,195,2.0,-999.0,-999,0.00,,,0.00,,2013-10-08 05:53:00,
2013-10-08 01:12:00,58.0,-99.9,-100.00,SSE,151,3.0,-999.0,-999,0.00,,,0.00,,2013-10-08 06:12:00,
2013-10-08 01:22:00,58.0,-99.9,-100.00,SSE,151,3.0,-999.0,-999,0.00,,,0.00,,2013-10-08 06:22:00,
2013-10-08 01:42:00,58.0,-99.9,-100.00,South,180,3.0,-999.0,-999,0.00,,,0.00,,2013-10-08 06:42:00,
2013-10-08 01:52:00,58.0,-99.9,-100.00,South,180,3.0,-999.0,-999,0.00,,,0.00,,2013-10-08 06:52:00,
2013-10-08 02:12:00,57.0,-99.9,-100.00,South,178,3.0,-999.0,-999,0.00,,,0.00,,2013-10-08 07:12:00,
2013-10-08 02:22:00,57.0,-99.9,-100.00,South,178,3.0,-999.0,-999,0.00,,,0.00,,2013-10-08 07:22:00,
2013-10-08 02:42:00,57.0,-99.9,-100.00,SW,234,1.0,-999.0,-999,0.00,,,0.00,,2013-10-08 07:42:00,
2013-10-08 02:52:00,57.0,-99.9,-100.00,SW,234,1.0,-999.0,-999,0.00,,,0.00,,2013-10-08 07:52:00,
2013-10-08 03:12:00,54.0,-99.9,-100.00,West,270,1.0,-999.0,-999,0.00,,,0.00,,2013-10-08 08:12:00,
2013-10-08 03:22:00,54.0,-99.9,-100.00,West,270,1.0,-999.0,-999,0.00,,,0.00,,2013-10-08 08:22:00,
2013-10-08 03:42:00,53.0,-99.9,-100.00,WSW,248,1.0,-999.0,-999,0.00,,,0.00,,2013-10-08 08:42:00,
2013-10-08 03:52:00,53.0,-99.9,-100.00,WSW,248,1.0,-999.0,-999,0.00,,,0.00,,2013-10-08 08:52:00,
2013-10-08 04:12:00,52.0,-99.9,-100.00,WSW,241,1.0,-999.0,-999,0.00,,,0.00,,2013-10-08 09:12:00,
2013-10-08 04:22:00,52.0,-99.9,-100.00,WSW,241,1.0,-999.0,-999,0.00,,,0.00,,2013-10-08 09:22:00,
2013-10-08 04:43:00,52.0,-99.9,-100.00,SW,234,1.0,-999.0,-999,0.00,,,0.00,,2013-10-08 09:43:00,
2013-10-08 04:53:00,52.0,-99.9,-100.00,SW,234,1.0,-999.0,-999,0.00,,,0.00,,2013-10-08 09:53:00,
2013-10-08 05:13:00,52.0,-99.9,-100.00,WSW,254,1.0,-999.0,-999,0.00,,,0.00,,2013-10-08 10:13:00,
2013-10-08 05:23:00,52.0,-99.9,-100.00,WSW,254,1.0,-999.0,-999,0.00,,,0.00,,2013-10-08 10:23:00,
2013-10-08 05:42:00,51.0,-99.9,-100.00,SW,234,1.0,-999.0,-999,0.00,,,0.00,,2013-10-08 10:42:00,
2013-10-08 05:53:00,51.0,-99.9,-100.00,SW,234,1.0,-999.0,-999,0.00,,,0.00,,2013-10-08 10:53:00,
2013-10-08 06:12:00,51.0,-99.9,-100.00,SW,222,1.0,-999.0,-999,0.00,,,0.00,,2013-10-08 11:12:00,
2013-10-08 06:22:00,51.0,-99.9,-100.00,SW,222,1.0,-999.0,-999,0.00,,,0.00,,2013-10-08 11:22:00,
2013-10-08 06:42:00,50.0,-99.9,-100.00,WSW,240,1.0,-999.0,-999,0.00,,,0.00,,2013-10-08 11:42:00,
2013-10-08 06:52:00,50.0,-99.9,-100.00,WSW,240,1.0,-999.0,-999,0.00,,,0.00,,2013-10-08 11:52:00,
2013-10-08 07:12:00,50.0,-99.9,-100.00,WSW,242,1.0,-999.0,-999,0.00,,,0.00,,2013-10-08 12:12:00,
2013-10-08 07:22:00,50.0,-99.9,-100.00,WSW,242,1.0,-999.0,-999,0.00,,,0.00,,2013-10-08 12:22:00,
2013-10-08 07:42:00,50.0,-99.9,-100.00,SW,230,1.0,-999.0,-999,0.00,,,0.00,,2013-10-08 12:42:00,
2013-10-08 07:52:00,50.0,-99.9,-100.00,SW,230,1.0,-999.0,-999,0.00,,,0.00,,2013-10-08 12:52:00,
2013-10-08 08:12:00,50.0,-99.9,-100.00,WSW,250,1.0,-999.0,-999,0.00,,,0.00,,2013-10-08 13:12:00,
2013-10-08 08:22:00,50.0,-99.9,-100.00,WSW,250,1.0,-999.0,-999,0.00,,,0.00,,2013-10-08 13:22:00,
2013-10-08 08:30:00,57.0,-99.9,-100.00,SE,129,3.0,-999.0,-999,0.00,,,0.00,,2013-10-08 13:30:00,
2013-10-08 08:42:00,54.0,-99.9,-100.00,SSW,199,0.0,-999.0,-999,0.00,,,0.00,,2013-10-08 13:42:00,
2013-10-08 08:52:00,54.0,-99.9,-100.00,SSW,199,0.0,-999.0,-999,0.00,,,0.00,,2013-10-08 13:52:00,
2013-10-08 09:11:00,57.0,-99.9,-100.00,SE,129,3.0,-999.0,-999,0.00,,,0.00,,2013-10-08 14:11:00,
2013-10-08 09:22:00,57.0,-99.9,-100.00,SE,129,3.0,-999.0,-999,0.00,,,0.00,,2013-10-08 14:22:00,
2013-10-08 10:11:00,61.0,-99.9,-100.00,ESE,111,2.0,-999.0,-999,0.00,,,0.00,,2013-10-08 15:11:00,
2013-10-08 10:22:00,61.0,-99.9,-100.00,ESE,111,2.0,-999.0,-999,0.00,,,0.00,,2013-10-08 15:22:00,
2013-10-08 10:44:00,61.0,-99.9,-100.00,SE,131,4.0,-999.0,-999,0.00,,,0.00,,2013-10-08 15:44:00,
2013-10-08 10:53:00,61.0,-99.9,-100.00,SE,131,4.0,-999.0,-999,0.00,,,0.00,,2013-10-08 15:53:00,
2013-10-08 11:13:00,62.0,-99.9,-100.00,SE,134,5.0,-999.0,-999,0.00,,,0.00,,2013-10-08 16:13:00,
2013-10-08 11:23:00,62.0,-99.9,-100.00,SE,134,5.0,-999.0,-999,0.00,,,0.00,,2013-10-08 16:23:00,
2013-10-08 11:43:00,65.0,-99.9,-100.00,SE,128,3.0,-999.0,-999,0.00,,,0.00,,2013-10-08 16:43:00,
2013-10-08 12:12:00,68.0,-99.9,-100.00,SE,128,3.0,-999.0,-999,0.00,,,0.00,,2013-10-08 17:12:00,
2013-10-08 12:23:00,68.0,-99.9,-100.00,SE,128,3.0,-999.0,-999,0.00,,,0.00,,2013-10-08 17:23:00,
2013-10-08 12:43:00,70.0,-99.9,-100.00,SE,128,6.0,-999.0,-999,0.00,,,0.00,,2013-10-08 17:43:00,
2013-10-08 12:52:00,70.0,-99.9,-100.00,SE,128,6.0,-999.0,-999,0.00,,,0.00,,2013-10-08 17:52:00,
2013-10-08 13:11:00,70.0,-99.9,-100.00,SE,137,8.0,-999.0,-999,0.00,,,0.00,,2013-10-08 18:11:00,
2013-10-08 13:22:00,70.0,-99.9,-100.00,SE,137,8.0,-999.0,-999,0.00,,,0.00,,2013-10-08 18:22:00,
2013-10-08 13:42:00,72.0,-99.9,-100.00,SE,134,7.0,-999.0,-999,0.00,,,0.00,,2013-10-08 18:42:00,
2013-10-08 13:53:00,72.0,-99.9,-100.00,SE,134,7.0,-999.0,-999,0.00,,,0.00,,2013-10-08 18:53:00,
2013-10-08 14:11:00,74.0,-99.9,-100.00,SE,136,7.0,-999.0,-999,0.00,,,0.00,,2013-10-08 19:11:00,
2013-10-08 14:22:00,74.0,-99.9,-100.00,SE,136,7.0,-999.0,-999,0.00,,,0.00,,2013-10-08 19:22:00,
2013-10-08 14:43:00,74.0,-99.9,-100.00,SE,135,7.0,-999.0,-999,0.00,,,0.00,,2013-10-08 19:43:00,
2013-10-08 14:53:00,74.0,-99.9,-100.00,SE,135,7.0,-999.0,-999,0.00,,,0.00,,2013-10-08 19:53:00,
2013-10-08 15:12:00,75.0,-99.9,-100.00,SE,139,8.0,-999.0,-999,0.00,,,0.00,,2013-10-08 20:12:00,
2013-10-08 15:22:00,75.0,-99.9,-100.00,SE,139,8.0,-999.0,-999,0.00,,,0.00,,2013-10-08 20:22:00,
2013-10-08 15:42:00,75.0,-99.9,-100.00,SSE,156,6.0,-999.0,-999,0.00,,,0.00,,2013-10-08 20:42:00,
2013-10-08 15:52:00,75.0,-99.9,-100.00,SSE,156,6.0,-999.0,-999,0.00,,,0.00,,2013-10-08 20:52:00,
2013-10-08 16:12:00,75.0,-99.9,-100.00,SE,142,6.0,-999.0,-999,0.00,,,0.00,,2013-10-08 21:12:00,
2013-10-08 16:22:00,75.0,-99.9,-100.00,SE,142,6.0,-999.0,-999,0.00,,,0.00,,2013-10-08 21:22:00,
2013-10-08 16:44:00,75.0,-99.9,-100.00,SE,141,7.0,-999.0,-999,0.00,,,0.00,,2013-10-08 21:44:00,
2013-10-08 16:54:00,75.0,-99.9,-100.00,SE,141,7.0,-999.0,-999,0.00,,,0.00,,2013-10-08 21:54:00,
2013-10-08 17:00:00,73.0,-99.9,-100.00,SE,138,8.0,-999.0,-999,0.00,,,0.00,,2013-10-08 22:00:00,
2013-10-08 17:13:00,74.0,-99.9,-100.00,SE,136,6.0,-999.0,-999,0.00,,,0.00,,2013-10-08 22:13:00,
2013-10-08 17:24:00,74.0,-99.9,-100.00,SE,136,6.0,-999.0,-999,0.00,,,0.00,,2013-10-08 22:24:00,
2013-10-08 17:50:00,73.0,-99.9,-100.00,SE,138,8.0,-999.0,-999,0.00,,,0.00,,2013-10-08 22:50:00,
2013-10-08 18:00:00,69.0,-99.9,-100.00,South,179,3.0,-999.0,-999,0.00,,,0.00,,2013-10-08 23:00:00,
2013-10-08 18:12:00,72.0,-99.9,-100.00,South,185,3.0,-999.0,-999,0.00,,,0.00,,2013-10-08 23:12:00,
2013-10-08 18:23:00,72.0,-99.9,-100.00,South,185,3.0,-999.0,-999,0.00,,,0.00,,2013-10-08 23:23:00,
2013-10-08 18:42:00,69.0,-99.9,-100.00,South,179,3.0,-999.0,-999,0.00,,,0.00,,2013-10-08 23:42:00,
2013-10-08 18:53:00,69.0,-99.9,-100.00,South,179,3.0,-999.0,-999,0.00,,,0.00,,2013-10-08 23:53:00,
2013-10-08 19:30:00,67.0,-99.9,-100.00,SSE,150,4.0,-999.0,-999,0.00,,,0.00,,2013-10-09 00:30:00,
2013-10-08 19:43:00,65.0,-99.9,-100.00,South,185,1.0,-999.0,-999,0.00,,,0.00,,2013-10-09 00:43:00,
2013-10-08 19:52:00,65.0,-99.9,-100.00,South,185,1.0,-999.0,-999,0.00,,,0.00,,2013-10-09 00:52:00,
2013-10-08 20:12:00,67.0,-99.9,-100.00,SSE,150,4.0,-999.0,-999,0.00,,,0.00,,2013-10-09 01:12:00,
2013-10-08 20:22:00,67.0,-99.9,-100.00,SSE,150,4.0,-999.0,-999,0.00,,,0.00,,2013-10-09 01:22:00,
2013-10-08 21:13:00,64.0,-99.9,-100.00,South,173,3.0,-999.0,-999,0.00,,,0.00,,2013-10-09 02:13:00,
2013-10-08 21:23:00,64.0,-99.9,-100.00,South,173,3.0,-999.0,-999,0.00,,,0.00,,2013-10-09 02:23:00,
2013-10-08 21:42:00,64.0,-99.9,-100.00,South,181,3.0,-999.0,-999,0.00,,,0.00,,2013-10-09 02:42:00,
2013-10-08 21:52:00,64.0,-99.9,-100.00,South,181,3.0,-999.0,-999,0.00,,,0.00,,2013-10-09 02:52:00,
2013-10-08 22:12:00,64.0,-99.9,-100.00,South,183,3.0,-999.0,-999,0.00,,,0.00,,2013-10-09 03:12:00,
2013-10-08 22:23:00,64.0,-99.9,-100.00,South,183,3.0,-999.0,-999,0.00,,,0.00,,2013-10-09 03:23:00,
2013-10-08 22:45:00,64.0,-99.9,-100.00,SSE,167,4.0,-999.0,-999,0.00,,,0.00,,2013-10-09 03:45:00,
2013-10-08 22:54:00,64.0,-99.9,-100.00,SSE,167,4.0,-999.0,-999,0.00,,,0.00,,2013-10-09 03:54:00,
2013-10-08 23:14:00,62.0,-99.9,-100.00,South,178,2.0,-999.0,-999,0.00,,,0.00,,2013-10-09 04:14:00,
2013-10-08 23:24:00,62.0,-99.9,-100.00,South,178,2.0,-999.0,-999,0.00,,,0.00,,2013-10-09 04:24:00,
2013-10-08 23:44:00,62.0,-99.9,-100.00,SSE,155,3.0,-999.0,-999,0.00,,,0.00,,2013-10-09 04:44:00,
2013-10-08 23:54:00,62.0,-99.9,-100.00,SSE,155,3.0,-999.0,-999,0.00,,,0.00,,2013-10-09 04:54:00,